Location: �perlecques
(50.8057°N, 2.1521°E)
Time: 19:21:16
(UTC+00:00)

Tiros 1 - Pass Details

Date: 04 August 2021
Orbit: 630 x 663 km, 48.4° (Epoch: 28 September)

Event Time Altitude Azimuth Distance (km) Brightness Sun altitude
Rises 17:37:50 0° 238° (WSW) 2,984 11.4 16.2°
Reaches altitude 10° 17:40:16 10° 232° (SW) 2,071 10.5 15.8°
Maximum altitude 17:44:49 45° 160° (SSE) 889 7.9 15.1°
Drops below altitude 10° 17:49:21 10° 88° (E) 2,060 9.2 14.4°
Sets 17:51:45 0° 82° (E) 2,966 10.0 14.0°
